Showing default

COSMOS 2386, 27057

Orbit data source: Space-Track

COSMOS 2386, 27057 is a payload satellite owned by KVR (CIS) in LEO that was launched on Fri, 28 Dec 2001 UTC via a TSIKLON-3 launch vehicle from the Plesetsk Missile And Space Complex (PKMTR). Payload-class satellites include a variety of spacecraft equipped with specific instruments for various scientific and technological missions. These include communications satellites like Starlink; space stations such as the ISS; scientific satellites like the Hubble; Earth observation satellites from companies like Planet Labs, Umbra, and HawkEye 360; GPS; miniature CubeSats for education and research; and military/defense satellites.

Loading next visibility...
Identifier
27057, 2001-058C
Orbit
LEO
Last TLE update
16 hours ago
Origin
Manufacturer
NPO PM
Mission
Operational Defense Communications
Bus & Motor
STRELA-3, Unknown motor
Mass
225 kg wet, 225 kg dry
Launch date (UTC)
2001-12-28 (24 years ago)
Launch vehicle
TSIKLON-3
Launch site
Plesetsk Missile And Space Complex (PKMTR)
Object type
Payload
Rocket body
Debris
Shape & HBR
Cyl + 1 Arm, 7 m
Radar Cross Section
1.257 m², Medium (>0.1 m² and < 1m²)

Expand to show TLE details & history

TLE from 16 hours ago
0 COSMOS 2386
1 27057U 01058C   25182.41193184  .00000023  00000-0  72085-4 0  9995
2 27057  82.5437  78.7510 0001338  87.5966 272.5278 12.61606572 82274
Epoch: 2025-07-01T09:53Z
TLE epoch observation values (Epoch: 2025-07-01T09:53:10.91Z)
Latitude
-0.00002°
Longitude
10.74778°
Altitude
1,419.002 km
Speed
7.151 km/s
True Right ascension
05h 15m 00s
True Declination
0° 00' 00"
Sunlit
Object was in daylight at epoch
Visualization orbit readout
Latitude
12.58893°
Longitude
-171.34845°
Altitude
1,418.142 km
Speed
7.153 km/s
Apparent Right ascension
19h 46m 50s
Apparent Declination
-21° 47' 34"
Sunlit
Object is in full shadow
Visualization observer readout
Local Sidereal Time
13:40:46
Azimuth
106.162° ESE
Elevation
-14.894°
Doppler factor
1
Orbital elements
Apogee altitude
1,414.686 km
Perigee altitude
1,412.601 km
Semi-major axis
7,791.78 km
Eccentricity
0.00013
Inclination
82.5437°
RAAN
78.751°
Arg. of periapsis
87.5966°
True anomaly
Unknown
Mean anomaly
272.5278°
Eccentric anomaly
Unknown
Mean motion
3.15564 °/min
Orbital period
114.08 mins
BSTAR
0.000072085
Loading maneuver chart data...
Loading SW <> Apogee altitude chart data...
Loading historical data...
Loading historical data...
Loading historical data...
Loading historical data...
Loading historical data...
Loading historical data...
Loading historical data...

COSMOS 2386 Visibility forecast

Observer location: undefined°, undefined°

Span
Click to sort rows by Start time (UTC) header in descending order
Start Az.
Max El. time (UTC)
Max El. Az.
Max El.
End time (UTC)
End Az.
13 mins2025-07-02 03:37:46.353Z15.266° NNE2025-07-02 03:43:46.353Z66.407° ENE26.016°2025-07-02 03:50:46.353Z126.115° SE
14 mins2025-07-02 05:32:46.353Z341.993° N2025-07-02 05:39:46.353Z262.604° W40.172°2025-07-02 05:46:46.353Z194.873° SSW
12 mins2025-07-02 16:27:46.353Z131.403° SE2025-07-02 16:32:46.353Z87.258° E25.681°2025-07-02 16:39:46.353Z28.967° NE
15 mins2025-07-02 18:20:46.353Z207.162° SW2025-07-02 18:27:46.353Z286.068° WNW39.997°2025-07-02 18:35:46.353Z0.041° NNE
|